Meteo Giornale » Osservazioni meteo Indonesia » Juanda
ore: 01:30 - Osservazioni Meteo Juanda
Lat. 7° 22' S Lon. 112° 47' E Alt. 2 metri s.l.m.
26 °C
Poco Nuvoloso
Temp. 24 Ore
25 °C
32 °C
Nord
3.7 Km/h
Dew point 24 °C
Umidità 88 %
Visibilità 7 Km
Il sole sorge alle ore 05:29
Il sole tramonta alle ore 17:28
| Data e Ora | Cielo e Fenomeni | T °C | DP °C | Um. % | Pres. hPa | Vis. km | Vento km/h | |
|---|---|---|---|---|---|---|---|---|
| Oggi h: 01:30 | Poco Nuvoloso | 26 | 24 | 88 | 1013 | 7 | N 3.7 | |
| Oggi h: 01:00 | Poco Nuvoloso | 25 | 24 | 94 | 1013 | 8 | E/SE 7.4 | |
| Oggi h: 00:30 | Poco Nuvoloso | 25 | 24 | 94 | 1014 | 8 | E 11.1 | |
| Oggi h: 00:00 | Poco Nuvoloso | 26 | 24 | 88 | 1014 | 8 | E 13 | |
| Ieri h: 23:30 | Poco Nuvoloso | 25 | 24 | 94 | 1014 | 8 | E 11.1 | |
| Ieri h: 23:00 | Poco Nuvoloso | 26 | 24 | 88 | 1014 | 9 | E 14.8 | |
| Ieri h: 22:30 | Poco Nuvoloso | 26 | 24 | 88 | 1014 | 9 | E 14.8 | |
| Ieri h: 22:00 | Poco Nuvoloso | 27 | 24 | 83 | 1015 | 9 | E/SE 14.8 | |
| Ieri h: 21:30 | Poco Nuvoloso | 27 | 24 | 83 | 1015 | 9 | E/SE 14.8 | |
| Ieri h: 21:00 | Poco Nuvoloso | 27 | 24 | 83 | 1015 | 9 | E 16.7 | |
| Ieri h: 20:30 | Poco Nuvoloso | 27 | 24 | 83 | 1014 | 9 | E 20.3 | |
| Ieri h: 20:00 | Poco Nuvoloso | 27 | 23 | 78 | 1014 | 9 | E 18.5 | |
| Ieri h: 19:30 | Poco Nuvoloso | 27 | 24 | 83 | 1014 | 9 | E 22.2 | |
| Ieri h: 19:00 | Poco Nuvoloso | 27 | 24 | 83 | 1014 | 9 | E/SE 20.3 | |
| Ieri h: 18:30 | Poco Nuvoloso | 28 | 24 | 78 | 1014 | 9 | E/SE 22.2 | |
| Ieri h: 18:00 | Poco Nuvoloso | 28 | 23 | 74 | 1013 | 9 | E/SE 16.7 | |
| Ieri h: 17:30 | Poco Nuvoloso | 28 | 23 | 74 | 1013 | 10 | E/SE 20.3 | |
| Ieri h: 17:00 | Poco Nuvoloso | 29 | 23 | 70 | 1013 | 10 | E 22.2 | |
| Ieri h: 16:30 | Poco Nuvoloso | 29 | 23 | 70 | 1012 | 10 | E 24 | |
| Ieri h: 16:00 | Poco Nuvoloso | 30 | 23 | 66 | 1012 | 10 | E 25.9 | |
| Ieri h: 15:30 | Poco Nuvoloso | 30 | 23 | 66 | 1012 | 10 | E 27.8 | |
| Ieri h: 15:00 | Poco Nuvoloso | 31 | 23 | 62 | 1012 | 10 | E 27.8 | |
| Ieri h: 14:30 | Poco Nuvoloso | 31 | 23 | 62 | 1012 | 10 | E 31.5 | |
| Ieri h: 14:00 | Poco Nuvoloso | 31 | 23 | 62 | 1013 | 10 | E 33.3 | |
| Ieri h: 13:30 | Poco Nuvoloso | 32 | 24 | 62 | 1013 | 10 | E 33.3 | |
| Ieri h: 13:00 | Poco Nuvoloso | 31 | 23 | 62 | 1013 | 10 | E 33.3 | |
| Ieri h: 12:30 | Poco Nuvoloso | 32 | 24 | 62 | 1013 | 10 | E 29.6 | |
| Ieri h: 12:00 | Poco Nuvoloso | 31 | 24 | 66 | 1014 | 10 | E 33.3 | |
| Ieri h: 11:30 | Poco Nuvoloso | 31 | 23 | 62 | 1014 | 10 | E 27.8 | |
| Ieri h: 11:00 | Poco Nuvoloso | 31 | 24 | 66 | 1014 | 10 | E 22.2 | |
| Ieri h: 10:30 | Poco Nuvoloso | 31 | 24 | 66 | 1015 | 10 | E/SE 20.3 | |
| Ieri h: 10:00 | Poco Nuvoloso | 31 | 24 | 66 | 1015 | 10 | E/SE 18.5 | |
| Ieri h: 09:30 | Poco Nuvoloso | 30 | 24 | 70 | 1016 | 10 | E 22.2 | |
| Ieri h: 09:00 | Poco Nuvoloso | 30 | 23 | 66 | 1016 | 10 | E/SE 20.3 | |
| Ieri h: 08:30 | Poco Nuvoloso | 30 | 23 | 66 | 1016 | 10 | E/SE 16.7 | |
| Ieri h: 08:00 | Poco Nuvoloso | 29 | 23 | 70 | 1015 | 10 | E/SE 13 | |
| Ieri h: 07:30 | Poco Nuvoloso | 29 | 23 | 70 | 1015 | 10 | S/SE 11.1 | |
| Ieri h: 07:00 | Poco Nuvoloso | 28 | 24 | 78 | 1015 | 10 | S 9.3 | |
| Ieri h: 06:30 | Poco Nuvoloso | 27 | 24 | 83 | 1014 | 10 | E/SE 13 | |
| Ieri h: 06:00 | Poco Nuvoloso | 26 | 23 | 83 | 1014 | 10 | E 14.8 | |
| Ieri h: 05:30 | Poco Nuvoloso | 26 | 24 | 88 | 1014 | 8 | E 18.5 | |
| Ieri h: 05:00 | Poco Nuvoloso | 26 | 24 | 88 | 1013 | 8 | E 16.7 | |
| Ieri h: 04:30 | Poco Nuvoloso | 26 | 24 | 88 | 1013 | 8 | E 16.7 | |
| Ieri h: 04:00 | Poco Nuvoloso | 26 | 24 | 88 | 1013 | 8 | E 16.7 | |
| Ieri h: 03:30 | Poco Nuvoloso | 26 | 24 | 88 | 1013 | 8 | E 16.7 | |
| Ieri h: 03:00 | Poco Nuvoloso | 26 | 24 | 88 | 1013 | 8 | E 22.2 | |



